Location: Marse
(42.1502°N, 110.9866°W)
Time: 21:48:04
(UTC+00:00)

QB50P2 - Pass Details

Date: 03 July 2022
Orbit: 590 x 605 km, 97.9° (Epoch: 11 August)

Event Time Altitude Azimuth Distance (km) Brightness Sun altitude
Rises 10:06:41 0° 353° (N) 2,861 ? -15.3°
Reaches altitude 10° 10:09:42 10° 330° (NNW) 1,955 ? -15.0°
Maximum altitude 10:12:00 15° 297° (WNW) 1,676 ? -14.7°
Enters shadow 10:13:51 11° 269° (W) 1,857 ? -14.5°
